Regional Weather Roundup
Issued by NWS

Home | Current Version | Previous Version | Text Only | Print | Product List | Glossary Off
Versions: 1 2 3 4 5 6 7 8 9 10 11 12 13 14 15 16 17 18 19 20 21 22 23 24 25 26 27

000
ASUS45 KBOU 291407
RWRCO

WEATHER ROUNDUP FOR COLORADO
NATIONAL WEATHER SERVICE DENVER/BOULDER CO
800 AM MDT FRI JUL 29 2016

NOTE: "FAIR" INDICATES FEW OR NO CLOUDS BELOW 12000 FEET WITH NO
SIGNIFICANT WEATHER AND/OR OBSTRUCTIONS TO VISIBILITY.

COZ001>005-013-030-031-291500-
...NORTHWEST COLORADO...

CITY           SKY/WX    TMP DP  RH WIND       PRES   REMARKS
CRAIG          FAIR      53  41  63 SE3       30.27R
HAYDEN         FAIR      57  34  41 E7        30.28S
MEEKER         FAIR      56  37  49 CALM      30.28R
MOUNT WERNER   NOT AVBL
STEAMBOAT SPGS FAIR      51  38  61 CALM      30.30S
WALDEN         FAIR      50  41  71 CALM      30.40R
$$

COZ006>008-011-291500-
...WEST CENTRAL VALLEYS...

CITY           SKY/WX    TMP DP  RH WIND       PRES   REMARKS
GRAND JUNCTION FAIR      72  37  28 SE3       30.11R
MONTROSE       FAIR      71  36  27 SE12      30.20S
EAGLE          SUNNY     55  34  44 CALM      30.31R
RIFLE          FAIR      62  37  39 CALM      30.21R
DELTA          NOT AVBL
NUCLA          NOT AVBL
$$

COZ017>023-064>068-291500-
...SOUTHWEST COLORADO...

CITY           SKY/WX    TMP DP  RH WIND       PRES   REMARKS
DURANGO        FAIR      63  40  42 CALM      30.26S
CORTEZ         FAIR      65  40  39 NE6       30.20R
PAGOSA SPRINGS FAIR      63  39  41 CALM      30.36S
TELLURIDE      FAIR      60  33  36 SE3       30.48S
WOLF CREEK PAS FAIR      54  34  47 SW13      30.69S
$$

COZ009-010-012-014-032>034-037-058>063-291500-
...CENTRAL COLORADO...

CITY           SKY/WX    TMP DP  RH WIND       PRES   REMARKS
ASPEN          FAIR      59  34  39 SE6       30.35S
BUENA VISTA    FAIR      59  45  59 CALM      30.37S
COPPER MTN     FAIR      54  28  37 NW10      30.65R
BERTHOUD PASS  FAIR      45  32  61 NW18G30   30.65S
COTTONWOOD PAS FAIR      57  46  67 E7        30.49R
GUNNISON       FAIR      52  36  54 CALM      30.40S
KREMMLING      FAIR      50  36  57 CALM      30.37S
LEADVILLE      FAIR      53  42  66 VRB3      30.49S
MONARCH PASS   FAIR      50  32  50 MISG      30.74S
SALIDA         FAIR      61  50  66 W3        30.42S
SUNLIGHT       FAIR      59  30  33 MISG      30.60R
WILKERSON PASS FAIR      52  41  66 W7        30.61R
$$

COZ069>075-291500-
...SAN LUIS VALLEY/SANGRE DE CRISTO MOUNTAINS...

CITY           SKY/WX    TMP DP  RH WIND       PRES   REMARKS
ALAMOSA        FAIR      60  46  59 E5        30.33R
LA VETA PASS   FAIR      54  39  58 S7G18     30.50S
SAGUACHE       FAIR      61  36  39 NW10      30.36S
$$

COZ035-036-038>040-291500-
...NORTHERN COLORADO FRONT RANGE...

CITY           SKY/WX    TMP DP  RH WIND       PRES   REMARKS
DENVER INTL AP FAIR      66  58  75 SE7       30.20S
DMNS CITY PARK   N/A     67  59  74 NW3       30.19F
AURORA         MOSUNNY   67  59  74 W8        30.21S
FRONT RANGE AP MOSUNNY   66  59  77 SE8       30.21
ERIE MUNI ARPT CLOUDY    67  59  76 CALM      30.20R
BOULDER MUN AP NOT AVBL
CENTENNIAL     PTSUNNY   65  59  81 W8        30.22S
BROOMFIELD     PTSUNNY   66  59  77 CALM      30.22S
LONGMONT       NOT AVBL
$$

COZ041-046-047-076>085-087-088-291500-
...PIKES PEAK/PALMER DIVIDE AND SOUTHERN FOOTHILLS...

CITY           SKY/WX    TMP DP  RH WIND       PRES   REMARKS
COLO. SPRINGS  PTSUNNY   62  58  86 E7        30.26S
A. F. ACADEMY  PTSUNNY   61  58  88 CALM      30.26S
SCHRIEVER AFB  NOT AVBL
ELLICOTT       NOT AVBL
FALCON         NOT AVBL
FORT CARSON    FAIR      62  59  88 E7        30.22S
LIMON          FAIR      62  59  90 S7        30.23R
MONUMENT HILL  FAIR      59  55  88 W7        30.31R
TRINIDAD       NOT AVBL
$$

COZ042>045-048>051-090-091-291500-
...NORTHEAST COLORADO...

CITY           SKY/WX    TMP DP  RH WIND       PRES   REMARKS
GREELEY ARPT   PTSUNNY   66  59  77 CALM      30.19S
AKRON          PTSUNNY   65  58  78 SE6       30.19R
BURLINGTON     LGT RAIN  62  59  90 E3        30.19R FOG
WRAY           FAIR      68  61  77 CALM      30.16R
STERLING       NOT AVBL
HOLYOKE        NOT AVBL
FORT MORGAN    NOT AVBL
$$

COZ086-089-092>099-291500-
...SOUTHEAST COLORADO...

CITY           SKY/WX    TMP DP  RH WIND       PRES   REMARKS
PUEBLO         CLOUDY    66  61  84 E10       30.18R
LA JUNTA       PTSUNNY   65  62  90 E10       30.16F
LAMAR          PTSUNNY   65  61  87 SE9       30.14F
SPRINGFIELD      N/A     62  60  93 NE8       30.18S
$$




USA.gov is the U.S. government's official web portal to all federal, state and local government web resources and services.